Tracking 19170 objects as of 22-May-2018
HD Live streaming from Space Station
objects crossing your sky now

SCOUT B-1 R/B

Track SCOUT B-1 R/B now!
10-day predictions


NORAD ID: 5438
Int'l Code: 1971-071B
Perigee: 631.8 km
Apogee: 784.4 km
Inclination: 50.1 °
Period: 98.8 minutes
Semi major axis: 7079 km
RCS: 0.747 m2 (medium)
Launch date: August 16, 1971
Source: United States (US)
Launch site: WALLOPS ISLAND (WLPIS)

Note: This is a ROCKET BODY
aabbcc
Your satellite tracking list
Your tracking list is empty




NASA's NSSDC Master Catalog

Two Line Element Set (TLE):
1  5438U 71071B   18142.09563009 -.00000087 +00000-0 +24185-4 0  9994
2  5438 050.1482 004.9049 0107807 001.7725 358.3566 14.57601159448475
Source of the keplerian elements: AFSPC